Location: Peterborough
(44.3091°N, 78.3197°W)
Time: 06:58:27
(UTC-04:00)

Vanguard 1 Rocket - Pass Details

Date: 31 March 2023
Orbit: 655 x 4220 km, 34.3° (Epoch: 04 June)

Event Time Altitude Azimuth Distance (km) Brightness Sun altitude
Rises 02:21:47 0° 271° (W) 8,132 12.1 -39.5°
Reaches altitude 10° 02:28:07 10° 268° (W) 6,738 11.6 -39.1°
Enters shadow 02:33:57 21° 262° (W) 5,384 11.0 -38.7°
Maximum altitude 02:46:44 50° 201° (SSW) 2,850 - -37.6°
Exits shadow 02:55:45 14° 132° (SE) 3,544 10.3 -36.8°
Drops below altitude 10° 02:56:39 10° 129° (SE) 3,755 10.4 -36.8°
Sets 02:59:07 0° 123° (ESE) 4,412 10.9 -36.5°
